Theta_e
317 318 317 316 316 317 316 315 313 313 313 313 313 312 312 312 310 311 311 312 312 314 314 315 314 314 315 316 315 315 313 313 315 319 320 319 326 328 332 331 329 328 327 326 326 325 325
316 317 317 316 315 315 316 316 314 312 313 313 313 313 312 312 312 308 308 310 312 312 313 313 314 313 313 314 312 312 314 313 312 317 320 318 324 324 328 330 331 328 328 327 327 327 327
315 317 316 317 315 313 314 315 314 312 312 312 314 313 313 312 311 311 309 310 312 312 311 313 313 313 313 313 310 310 310 311 312 313 318 318 320 326 326 330 328 329 329 329 328 328 328
314 315 316 316 316 316 313 313 314 313 312 312 313 314 313 312 311 310 311 312 312 312 311 312 312 312 312 310 311 311 311 311 312 311 316 317 319 323 326 326 329 330 331 333 328 328 328
314 316 315 315 316 316 316 314 313 315 314 312 313 313 312 311 308 308 309 312 312 311 310 311 311 311 312 309 310 310 310 310 313 312 312 315 318 323 327 327 330 332 334 332 329 327 327
314 315 314 314 315 315 315 315 315 312 315 313 312 312 312 312 309 308 308 312 313 310 310 310 310 312 310 310 310 309 310 309 310 315 315 318 318 326 330 329 334 331 331 329 331 326 322
313 313 313 314 314 314 315 315 314 312 314 313 311 311 311 311 310 309 309 312 309 310 309 310 310 309 310 310 311 310 310 310 311 315 318 319 321 324 329 330 327 325 327 329 327 324 323
313 312 313 314 314 314 315 315 314 312 312 312 310 311 310 310 311 309 311 310 309 309 312 309 309 309 311 310 313 311 311 311 313 314 316 319 323 322 327 328 326 329 328 328 326 321 322
313 312 313 314 314 315 315 315 315 314 311 311 311 310 310 310 309 310 313 313 310 307 310 310 309 310 310 309 312 313 312 311 312 314 314 320 319 322 328 329 328 328 327 327 328 325 325
313 313 313 314 315 315 315 315 315 315 314 310 310 309 309 309 310 313 313 311 308 307 310 311 311 309 311 311 313 310 311 310 314 315 316 318 319 324 329 329 328 331 327 327 328 331 334
312 313 313 314 314 316 316 315 315 315 315 314 310 309 309 308 312 312 311 310 306 307 317 312 311 309 310 311 312 312 312 311 314 317 315 319 318 327 330 330 326 329 327 328 329 330 328
312 312 312 313 314 315 316 316 316 315 315 315 312 309 308 310 311 311 311 308 306 312 316 314 312 312 313 312 311 313 314 311 315 317 316 316 322 321 329 327 327 324 325 326 325 325 333
313 312 312 312 313 315 315 315 315 316 315 315 314 311 309 310 312 312 309 308 313 317 312 316 315 314 312 312 312 314 315 315 316 321 321 317 324 326 327 329 322 326 330 336 336 335 333
313 312 312 312 314 315 315 314 315 316 315 315 315 313 311 310 311 312 309 311 318 316 315 313 314 313 314 313 313 316 314 314 315 318 318 321 332 330 328 328 326 326 329 331 334 333 330
309 313 313 313 314 315 314 314 315 316 316 314 315 313 312 312 311 311 310 315 317 317 313 315 314 315 314 314 314 316 314 313 315 316 319 322 327 324 327 323 324 327 331 323 324 322 327
306 312 312 313 314 315 314 314 314 315 315 315 312 310 310 310 311 311 309 316 315 314 311 315 314 313 315 315 317 315 314 312 314 316 318 319 323 321 318 323 317 327 326 328 325 331 330
305 309 313 313 314 315 314 314 314 315 314 315 311 312 313 311 310 309 313 315 315 314 312 314 312 314 313 315 316 316 315 317 315 318 319 320 322 317 318 325 327 328 329 328 325 324 329
304 306 313 313 314 315 314 314 314 315 314 310 312 318 313 311 312 311 313 314 314 316 314 314 314 313 313 315 315 319 317 320 315 319 322 319 321 327 321 316 319 325 326 326 330 326 322
304 305 309 313 314 315 313 313 313 314 314 308 313 316 311 311 317 315 313 315 314 317 316 314 317 315 314 315 318 317 320 317 318 321 322 318 322 325 325 321 316 325 323 327 324 320 325
304 304 306 313 314 315 314 313 313 314 314 311 313 320 316 315 316 317 317 318 319 319 318 319 320 320 317 316 318 318 324 321 321 321 321 317 321 322 326 324 323 324 323 325 327 328 326
305 304 305 309 314 315 313 313 313 313 313 310 312 318 316 318 316 317 318 319 322 323 321 322 322 321 319 320 322 324 324 322 322 322 320 321 323 321 320 320 321 321 322 320 323 325 326
304 303 305 306 313 315 313 313 312 313 313 310 313 314 313 318 318 319 317 322 322 322 322 323 324 321 320 322 322 325 324 323 324 322 322 319 323 318 318 318 320 321 320 321 323 324 323
303 302 304 306 309 314 313 312 312 312 312 310 308 308 312 315 315 320 321 320 322 321 319 318 321 321 321 321 320 321 322 322 322 322 322 322 321 320 324 316 318 322 321 320 320 320 320
301 303 303 305 307 313 313 312 311 312 313 310 308 310 313 317 314 318 317 320 320 321 323 312 315 320 314 309 313 318 319 316 320 315 320 322 322 319 318 317 326 321 314 319 320 320 318
301 301 303 304 306 312 313 312 311 311 313 312 309 311 313 317 314 312 313 315 313 311 312 310 308 308 310 313 320 321 319 321 315 312 314 319 322 324 321 320 319 315 314 315 319 321 316
301 302 301 302 303 310 312 311 310 311 313 312 311 308 308 312 314 309 310 315 316 313 311 308 306 306 314 316 325 328 329 325 319 318 310 312 320 325 318 321 325 317 315 313 315 319 314
300 301 301 302 303 306 312 311 310 310 313 312 310 308 308 311 310 308 312 313 310 312 311 308 309 312 314 320 322 326 324 318 322 322 321 318 317 322 323 326 319 315 314 314 319 321 314
299 300 301 302 303 305 312 311 310 311 312 312 311 309 310 311 312 310 308 307 306 311 315 308 315 313 316 323 322 319 320 320 316 315 317 318 321 320 322 325 323 313 313 318 317 314 314
299 299 300 301 303 304 312 311 310 311 312 312 311 309 309 310 312 308 308 307 306 307 307 305 316 313 317 318 318 316 317 314 317 318 311 318 319 317 318 318 313 311 313 311 313 313 311
Wind_Speed
16 15 13 14 15 13 14 13 12 13 12 10 11 8 6 5 5 5 4 4 5 7 8 9 9 9 10 7 11 6 5 8 3 14 21 16 15 15 18 19 17 19 17 13 13 12 12
16 17 16 14 15 14 13 14 13 13 13 11 12 10 7 6 7 5 5 7 7 7 9 11 10 12 9 13 9 13 15 11 2 9 19 20 10 18 13 20 23 12 18 16 14 14 12
18 16 17 15 14 12 12 14 14 14 14 13 14 12 9 7 7 8 6 7 8 8 8 10 9 13 10 13 5 5 7 13 14 8 18 23 27 11 13 17 16 23 12 13 15 16 15
18 18 17 16 14 13 13 13 16 15 15 14 15 14 11 9 8 8 8 9 10 10 7 7 7 10 7 7 21 15 7 4 10 17 15 19 22 12 6 10 12 18 17 17 18 15 12
20 19 17 17 14 14 13 13 15 17 16 14 16 16 14 11 10 11 10 11 13 12 9 7 7 7 7 4 17 19 23 14 3 12 16 9 14 6 11 11 13 16 15 22 18 13 13
19 17 20 19 17 14 14 14 15 15 17 15 16 17 16 15 12 12 11 7 14 10 9 8 4 5 9 8 9 15 15 18 12 10 10 12 8 8 9 11 18 18 16 12 17 9 11
20 18 20 20 17 16 16 13 14 13 16 16 16 17 16 16 16 14 9 5 6 4 11 9 9 6 2 13 6 10 10 14 12 7 12 20 11 20 24 21 16 19 18 15 13 6 6
21 20 17 20 17 16 15 13 12 13 15 17 17 17 15 15 15 15 13 5 6 3 5 19 7 20 3 7 6 11 12 13 14 16 18 17 21 24 17 22 20 17 15 15 10 5 6
22 22 18 20 20 19 15 14 13 12 14 15 16 15 14 13 12 14 18 11 14 11 2 8 21 13 7 14 6 10 17 19 16 18 16 21 20 26 13 25 21 15 15 14 9 4 7
23 23 21 19 21 20 18 15 15 13 12 14 15 15 13 10 9 8 5 15 20 15 2 6 10 10 14 7 8 22 23 15 11 19 14 20 17 20 18 19 22 16 11 7 7 2 5
25 22 23 21 20 20 18 16 15 15 12 12 13 15 14 13 3 3 10 20 20 6 5 11 9 7 10 16 4 16 23 17 16 8 6 13 26 16 19 17 23 15 11 10 4 6 4
26 25 23 23 19 19 18 16 17 16 13 12 12 15 13 11 11 9 13 27 10 4 7 8 8 11 13 19 12 7 13 13 4 11 16 12 3 17 15 16 20 13 12 7 3 1 7
29 25 25 25 21 19 17 16 16 16 14 12 12 14 16 12 5 16 32 9 3 6 4 6 5 9 14 10 16 9 18 22 6 6 7 13 12 9 14 14 4 15 15 3 5 4 6
26 28 25 25 23 19 17 16 16 15 14 12 13 14 17 22 16 14 16 3 8 5 5 4 7 14 11 12 13 13 16 17 14 14 12 7 6 14 13 17 7 12 16 4 5 6 5
32 27 25 24 23 19 16 15 15 14 13 11 11 7 8 18 18 26 6 5 4 4 6 9 14 12 10 14 5 16 17 21 5 14 7 5 1 3 13 6 15 5 6 2 2 1 3
36 25 27 24 23 19 15 14 14 14 9 9 6 4 10 16 26 15 2 5 4 6 6 15 9 12 14 15 5 14 17 16 10 15 9 12 3 5 6 8 5 8 12 5 3 5 5
29 29 24 24 22 18 14 13 12 12 7 8 5 2 3 20 23 4 4 5 4 10 13 16 8 11 11 14 8 15 17 7 19 13 14 7 6 2 12 6 14 10 7 4 3 3 3
25 30 19 21 22 18 12 12 11 9 7 9 5 3 22 35 4 3 3 5 4 6 16 16 6 8 13 14 8 4 15 6 22 13 10 7 3 8 5 3 7 12 10 11 6 5 1
21 28 28 20 19 17 12 12 11 11 10 8 3 2 18 20 4 5 6 7 8 12 17 10 11 10 11 12 9 14 13 17 21 17 12 10 6 8 5 3 2 9 11 16 10 2 11
22 25 30 14 19 18 14 13 13 13 12 8 2 3 4 3 3 4 8 10 8 16 16 15 9 9 15 12 10 14 11 10 19 20 11 5 5 12 11 6 11 14 20 19 18 11 9
20 21 27 23 18 19 15 14 14 14 13 10 4 4 4 5 8 13 7 3 11 9 7 4 6 11 15 8 11 9 8 7 14 22 10 4 3 6 3 2 15 18 19 20 20 21 13
28 22 24 26 15 20 17 16 16 15 16 6 3 3 3 3 9 12 14 9 11 6 4 4 5 14 16 11 11 13 9 12 11 17 18 5 4 3 3 3 10 14 20 22 23 21 23
30 23 24 24 23 19 17 17 17 17 20 4 4 2 3 2 4 4 5 8 14 7 6 7 11 14 14 8 11 15 13 11 8 18 20 13 4 3 3 3 5 8 19 20 19 21 22
31 24 22 25 27 15 18 18 18 20 22 8 4 2 3 4 5 5 5 7 8 14 3 2 7 11 4 6 10 11 7 6 14 6 11 9 5 1 3 4 5 1 3 17 22 18 20
30 26 27 23 28 16 19 19 18 20 22 17 6 3 3 4 3 2 7 4 4 4 1 1 3 2 9 3 9 9 4 3 3 7 2 3 4 3 3 8 6 3 5 7 12 15 16
29 28 27 27 30 18 19 19 17 18 20 22 12 9 2 3 1 1 3 9 4 3 2 2 2 3 2 1 3 3 4 5 6 2 3 3 6 4 4 3 4 3 3 6 6 8 12
30 31 27 25 30 28 22 18 17 19 19 20 6 16 2 2 1 2 2 7 4 3 3 2 2 1 3 2 3 2 2 1 10 11 9 4 4 11 8 2 7 2 6 5 6 1 9
30 32 28 24 27 26 23 17 18 19 18 19 4 16 4 2 1 1 1 3 4 3 4 4 4 1 1 1 3 2 3 4 3 6 10 10 8 5 6 5 9 6 5 6 4 8 12
32 32 30 25 24 24 23 18 19 19 18 19 4 13 12 2 2 0 2 1 1 1 4 1 0 5 4 3 2 4 3 2 6 5 1 6 3 3 7 4 2 0 2 2 8 13 9
Wind_Direction
298 296 296 309 298 274 265 261 264 259 261 264 267 268 262 276 281 277 283 286 278 258 248 237 222 196 170 209 234 185 114 66 44 205 208 214 227 215 212 209 207 227 230 229 245 258 263
284 296 292 301 309 281 271 255 263 259 256 258 263 258 261 269 273 274 277 263 265 262 242 232 218 190 210 233 221 235 245 268 307 197 215 215 229 219 237 223 212 213 236 242 248 252 257
279 288 291 288 295 289 276 256 259 261 256 254 258 257 261 256 266 257 252 257 256 254 241 232 221 192 226 230 217 218 242 244 236 210 212 216 228 243 222 218 221 230 230 228 242 248 250
276 279 281 285 283 283 281 266 257 260 258 255 256 256 254 246 252 259 254 248 246 234 232 230 201 198 241 232 239 247 246 230 232 222 224 216 232 261 256 228 199 215 228 236 235 227 238
277 278 274 281 281 280 281 267 267 261 256 257 254 251 250 249 258 264 254 257 232 223 207 182 156 199 249 210 219 231 231 235 235 207 207 206 215 246 216 214 188 204 216 224 232 212 230
269 277 278 277 279 278 280 274 264 264 249 261 253 247 250 249 259 267 252 264 215 188 162 139 163 190 234 219 212 226 232 218 230 217 195 200 187 229 208 198 198 191 212 218 221 201 219
266 266 270 274 274 275 276 276 264 261 252 259 254 249 250 254 256 266 256 117 116 187 194 196 200 218 108 220 177 216 201 186 208 224 201 201 198 222 201 203 209 206 209 206 214 198 244
265 261 258 271 271 272 274 272 271 265 252 258 252 249 253 257 255 266 231 191 200 158 196 225 230 222 132 148 187 217 185 181 198 203 233 182 216 222 207 196 210 206 203 208 212 196 260
261 262 256 264 268 271 270 271 269 268 257 253 253 247 250 257 267 256 234 223 212 153 213 212 214 207 213 229 229 203 189 204 214 215 229 196 204 210 218 192 193 198 192 196 215 181 243
265 258 262 263 268 269 266 268 265 265 260 252 249 246 240 249 267 221 219 176 174 150 265 201 197 218 210 205 228 221 196 196 224 218 207 222 198 206 191 192 192 191 206 169 162 268 240
262 261 262 261 270 269 265 267 266 262 259 253 242 237 234 224 292 208 158 165 137 93 263 136 158 161 195 194 134 192 188 208 235 171 185 206 200 195 201 189 198 211 164 216 241 273 290
256 260 261 264 270 271 267 266 267 265 254 251 238 234 225 229 236 224 178 156 108 145 243 172 145 184 165 205 218 133 177 212 223 181 213 200 222 211 205 182 202 140 127 98 117 293 248
262 255 258 259 267 268 263 270 271 263 255 249 241 223 211 208 230 196 156 133 168 230 118 171 168 175 171 180 204 188 190 193 196 143 187 228 248 178 204 148 129 169 142 145 191 206 238
291 259 254 256 264 263 264 269 272 260 248 250 246 224 217 214 218 185 152 151 225 164 176 160 164 165 181 172 195 213 195 190 212 275 166 196 176 171 175 179 153 195 177 193 180 193 177
329 262 255 258 258 256 261 266 270 255 244 253 252 204 217 226 202 174 155 215 227 174 162 170 170 164 201 183 139 203 202 195 190 242 151 192 221 105 156 133 147 189 177 24 117 70 238
298 299 260 255 256 250 255 265 265 259 235 254 181 191 239 220 190 161 155 246 229 161 180 182 179 191 187 180 182 191 185 199 207 234 246 189 123 154 112 82 348 184 162 183 210 204 224
292 313 264 258 254 245 248 256 254 245 231 224 150 225 194 171 150 142 214 232 239 216 169 197 189 186 192 178 181 188 187 168 195 211 219 219 220 345 139 193 186 155 167 219 255 280 241
312 321 303 258 254 238 239 241 242 222 223 165 153 236 152 151 144 197 211 205 227 227 191 214 220 188 184 162 154 248 196 205 196 202 188 222 210 145 198 65 206 188 179 184 197 193 251
313 310 322 259 248 234 229 230 228 213 214 157 215 157 161 167 193 203 231 234 227 179 196 199 197 192 166 161 171 225 197 198 191 195 194 181 181 139 162 208 107 204 192 204 213 285 206
308 299 323 299 249 232 225 222 219 213 215 189 207 157 148 215 272 202 216 249 208 202 201 222 177 167 161 176 211 193 209 181 195 204 206 188 193 217 201 209 176 197 197 206 207 222 210
320 308 310 330 253 227 222 215 213 209 211 184 196 212 186 196 225 238 246 239 211 169 221 216 182 193 175 160 186 190 173 169 190 206 205 254 222 198 244 197 189 197 197 196 208 217 227
332 314 315 322 299 228 219 211 213 204 200 202 210 206 198 255 218 214 226 207 222 150 184 215 226 189 190 176 188 185 163 177 179 198 205 215 214 169 171 175 206 213 213 206 215 218 233
333 316 311 318 314 233 216 209 209 203 192 184 202 231 267 205 187 183 192 196 208 149 214 254 218 182 197 220 196 177 175 182 188 181 192 201 189 188 194 127 164 238 214 210 216 220 220
331 326 305 313 309 267 215 209 210 208 209 201 192 159 220 256 207 200 194 197 197 187 231 198 223 177 167 119 121 115 112 59 146 120 197 187 170 28 93 78 221 20 11 220 219 224 224
331 326 329 312 318 286 211 210 212 209 215 214 190 195 231 262 246 186 155 137 121 85 83 76 21 2 142 176 128 117 133 68 9 48 96 126 107 118 162 216 312 216 190 172 188 238 220
329 331 315 318 321 311 208 209 213 211 216 212 220 204 231 285 228 51 125 173 146 140 101 48 17 21 37 119 115 130 168 138 171 180 57 94 101 176 183 239 236 47 165 166 166 256 182
330 329 321 302 308 321 214 208 212 210 213 204 209 197 192 233 133 175 187 174 133 98 81 119 107 63 41 4 98 128 155 156 161 170 175 157 197 212 221 222 290 155 150 162 184 16 145
327 328 324 305 304 327 212 209 209 208 210 201 210 199 208 218 306 219 305 154 135 185 146 164 135 63 69 91 122 182 219 187 156 142 168 174 177 189 200 193 248 148 131 206 102 123 133
326 326 322 306 299 319 211 206 206 207 207 199 189 192 203 243 21 124 59 332 291 19 123 244 103 150 166 104 235 139 161 163 180 182 165 191 202 191 207 209 37 31 344 97 153 137 132